FW7721 Weather Reports


Display with metric or nautical units.
time (UTC)temp
F
wind
direction
speed
MPH
gust
MPH
rain 1hr
in
rain 24hr
in
rain mn
in
humidity
%
barometer
mb
20260505031508 45 209 8.0 16.0 0.00 0.13 0.00 83 1006.9
20260505030004 46 195 7.0 14.0 0.00 0.15 0.13 81 1006.7
20260505024504 47 247 7.0 14.0 0.00 0.15 0.13 82 1006.6
20260505023002 46 188 5.0 12.0 0.00 0.15 0.13 82 1006.4
20260505021600 47 234 7.0 14.0 0.00 0.15 0.13 81 1006.3
20260505020057 47 229 6.0 14.0 0.00 0.15 0.13 81 1006.1
20260505014556 47 241 9.0 18.0 0.00 0.17 0.13 81 1006.0
20260505013154 47 219 7.0 15.0 0.00 0.17 0.13 80 1005.8
20260505011559 47 207 4.0 11.0 0.00 0.17 0.13 79 1005.8
20260505010057 48 215 7.0 14.0 0.00 0.17 0.13 78 1005.7
20260505004555 48 226 6.0 13.0 0.00 0.18 0.13 77 1005.8
20260505003050 48 192 5.0 14.0 0.00 0.18 0.13 76 1005.7
20260505001548 49 223 5.0 10.0 0.00 0.18 0.13 73 1005.4
20260505000048 51 204 5.0 15.0 0.00 0.18 0.13 69 1005.1
20260504234610 51 234 6.0 12.0 0.00 0.25 0.13 67 1004.8
20260504233046 52 228 5.0 12.0 0.00 0.25 0.13 65 1005.0
20260504231551 52 234 6.0 15.0 0.00 0.25 0.13 63 1004.5
20260504230039 52 225 5.0 13.0 0.00 0.25 0.13 62 1004.2
20260504224536 53 225 6.0 14.0 0.00 0.38 0.13 62 1004.1
20260504223036 53 219 8.0 18.0 0.00 0.38 0.13 60 1003.9
20260504221533 54 223 8.0 15.0 0.00 0.38 0.13 58 1003.7
20260504220030 55 218 6.0 14.0 0.00 0.38 0.13 56 1003.4
20260504214537 56 215 9.0 17.0 0.00 0.52 0.13 53 1003.4
20260504213031 58 236 8.0 17.0 0.00 0.52 0.13 44 1003.0
20260504211527 58 269 8.0 23.0 0.00 0.52 0.13 43 1003.0
20260504210025 59 311 9.0 22.0 0.00 0.52 0.13 42 1002.8
20260504204550 58 321 8.0 22.0 0.00 0.73 0.13 41 1002.8
20260504203027 58 255 13.0 25.0 0.00 0.73 0.13 42 1002.4
20260504201520 58 302 12.0 30.0 0.00 0.73 0.13 43 1002.3
20260504200020 58 257 18.0 34.0 0.00 0.73 0.13 41 1002.1
20260504194518 57 301 16.0 30.0 0.00 0.87 0.13 41 1001.7
20260504193021 57 275 12.0 26.0 0.00 0.87 0.13 45 1001.8
20260504191511 57 223 11.0 29.0 0.00 0.87 0.13 47 1001.5
20260504190010 56 292 10.0 29.0 0.00 0.94 0.13 51 1001.5
20260504184507 56 275 14.0 26.0 0.00 0.94 0.13 53 1001.4
20260504183005 56 252 16.0 29.0 0.00 0.94 0.13 52 1001.2
20260504181504 55 236 13.0 30.0 0.00 0.94 0.13 53 1001.1
20260504180001 55 245 13.0 26.0 0.00 0.94 0.13 57 1000.9
20260504174600 55 295 11.0 27.0 0.00 0.94 0.13 57 1000.7
20260504173057 55 304 14.0 29.0 0.00 0.94 0.13 57 1000.5
20260504171557 55 233 11.0 29.0 0.00 0.94 0.13 61 1000.4
20260504081524 36 246 12.0 30.0 0.01 0.86 0.05 96 985.8
20260504070105 36 238 14.0 24.0 0.00 0.84 0.03 97 982.5
20260504044537 40 227 11.0 20.0 0.01 0.83 0.02 99 978.0
20260504043025 40 226 9.0 21.0 0.00 0.82 0.01 99 977.4
20260504041521 40 219 9.0 19.0 0.00 0.82 0.01 99 976.9
20260504040022 39 234 10.0 17.0 0.01 0.82 0.01 99 976.4
20260504034514 39 233 5.0 12.0 0.01 0.82 0.01 99 975.7
20260504033010 39 263 5.0 13.0 0.02 0.82 0.01 99 974.9